This demonstration page uses our WeatherBlox Daily Observations layout. Learn more.

39.29038, -76.61219

Hourly Observations for April 9, 2016

Temp ( °F °C ) Dew Point ( °F °C ) Humidity (%) Winds ( mph kmh ) Pressure ( in mb ) Visibility ( mi km ) Precip ( " mm )
12:54 am 00:54 undefined 43 6.1 25 -3.9 49 49 undefined N/A 29.77 1008 N/A 0 0
1:54 am 01:54 undefined 43 6.1 26 -3.3 51 51 undefined N/A 29.77 1008 N/A 0 0
2:54 am 02:54 undefined 42 5.6 25 -3.9 51 51 undefined N/A 29.74 1007 N/A 0 0
3:54 am 03:54 undefined 43 6.1 26 -3.3 51 51 undefined N/A 29.73 1007 N/A 0 0
4:54 am 04:54 undefined 43 6.1 31 -0.6 63 63 undefined N/A 29.73 1007 N/A 0 0
5:54 am 05:54 undefined 40 4.4 34 1.1 79 79 undefined N/A 29.71 1006 N/A 0.03 0.762
6:54 am 06:54 undefined 40 4.4 36 2.2 86 86 undefined N/A 29.7 1006 N/A 0.02 0.508
7:54 am 07:54 undefined 37 2.8 33 0.6 86 86 undefined N/A 29.7 1006 N/A 0.08 2.032
8:54 am 08:54 undefined 38 3.3 35 1.7 89 89 undefined N/A 29.71 1006 N/A 0.1 2.54
9:54 am 09:54 undefined 39 3.9 34 1.1 82 82 undefined N/A 29.7 1006 N/A 0.03 0.762
10:54 am 10:54 undefined 41 5 36 2.2 82 82 undefined N/A 29.73 1007 N/A 0 0
11:54 am 11:54 undefined 44 6.7 34 1.1 68 68 undefined N/A 29.73 1007 N/A 0 0
12:54 pm 12:54 undefined 44 6.7 30 -1.1 58 58 undefined N/A 29.69 1006 N/A 0.01 0.254
1:54 pm 13:54 undefined 47 8.3 26 -3.3 44 44 undefined N/A 29.75 1008 N/A 0 0
2:54 pm 14:54 undefined 48 8.9 21 -6.1 34 34 undefined N/A 29.77 1008 N/A 0 0
3:54 pm 15:54 undefined 47 8.3 20 -6.7 34 34 undefined N/A 29.79 1009 N/A 0 0
4:54 pm 16:54 undefined 48 8.9 21 -6.1 34 34 undefined N/A 29.82 1010 N/A 0 0
5:54 pm 17:54 undefined 42 5.6 31 -0.6 65 65 undefined N/A 29.85 1011 N/A 0 0
6:54 pm 18:54 undefined 38 3.3 33 0.6 83 83 undefined N/A 29.91 1013 N/A 0.03 0.762
7:54 pm 19:54 undefined 38 3.3 32 0 79 79 undefined N/A 29.99 1016 N/A 0.01 0.254
8:54 pm 20:54 undefined 38 3.3 29 -1.7 70 70 undefined N/A 30.06 1018 N/A 0 0
9:54 pm 21:54 undefined 37 2.8 25 -3.9 62 62 undefined N/A 30.11 1020 N/A 0 0
10:54 pm 22:54 undefined 37 2.8 22 -5.6 54 54 undefined N/A 30.14 1021 N/A 0 0
11:54 pm 23:54 undefined 36 2.2 20 -6.7 52 52 undefined N/A 30.16 1021 N/A 0 0

Powered by AerisWeather